RH
14 14 13 13 12 12 11 11 10 9 7 6 6 7 8 11 13 14 16 17 17 16 16 17 26 33 48 53 53 59 67 67 66 67 57 59 60 54 50 53 56 55 58 53 60
14 13 13 13 12 12 12 11 10 9 8 7 6 5 6 7 10 12 14 15 16 16 18 16 24 31 44 45 49 53 62 61 60 61 59 64 63 65 58 52 57 58 56 53 61
14 13 13 12 12 11 11 11 10 10 9 8 7 6 5 5 6 8 11 14 16 15 17 15 23 32 41 39 44 52 54 60 60 62 61 64 65 67 63 59 57 55 55 52 64
13 13 12 12 11 11 10 10 9 9 8 6 6 5 6 5 7 6 8 12 14 15 15 15 23 32 34 32 36 48 52 58 60 63 65 65 67 70 68 68 63 54 53 50 65
12 11 11 11 11 11 11 10 10 9 8 7 7 6 5 7 7 10 7 9 12 15 15 15 24 26 27 28 32 47 55 58 62 63 64 65 65 67 67 64 57 56 50 53 65
13 12 11 11 10 10 11 10 10 9 8 7 7 7 6 6 7 11 8 6 11 14 14 15 20 22 23 25 32 46 55 60 63 63 61 60 60 59 61 60 58 57 43 51 59
14 13 12 12 11 10 10 10 10 9 8 7 6 8 8 6 7 11 11 8 8 14 15 16 21 23 23 23 33 42 48 56 60 61 59 59 61 59 59 57 61 64 50 46 51
17 15 13 12 12 11 10 10 11 10 9 7 6 7 8 5 6 11 12 11 7 11 14 16 20 23 23 21 27 35 43 51 51 54 57 57 60 58 56 58 57 58 57 51 48
20 17 15 13 12 12 12 12 12 11 11 10 8 7 8 5 6 12 12 11 7 9 12 15 20 21 21 21 22 28 37 42 43 48 54 49 47 56 52 56 59 56 54 56 48
20 20 18 15 13 13 14 13 13 14 13 12 12 9 6 7 9 12 12 11 10 8 11 13 17 20 21 22 25 26 29 38 40 42 38 39 42 48 52 55 58 61 57 54 52
19 19 21 17 15 14 15 15 17 20 17 14 15 12 10 9 10 13 10 9 12 10 11 12 15 17 21 23 23 20 24 30 30 29 28 33 38 43 49 55 57 60 60 59 54
19 18 20 19 16 17 16 18 19 18 17 17 17 16 15 12 13 15 12 10 11 13 11 12 11 16 21 21 19 19 21 26 27 28 29 25 31 37 41 50 53 53 57 57 57
18 17 18 21 18 19 20 21 20 20 20 18 18 19 19 16 17 18 16 12 11 12 12 12 14 14 16 18 19 19 21 25 22 24 23 22 23 33 41 45 48 48 52 56 57
20 19 19 21 20 21 23 23 23 22 23 22 21 20 20 19 19 19 18 16 15 13 13 12 14 14 15 16 18 19 19 22 21 23 27 24 24 28 32 39 43 44 44 46 51
23 20 19 21 20 23 24 25 26 26 25 23 23 22 22 20 22 20 19 20 20 18 16 14 14 13 13 14 16 16 18 17 19 22 23 22 26 27 25 23 28 35 40 40 43
24 20 20 21 19 21 26 26 26 26 28 23 24 23 22 21 22 23 20 21 23 21 17 15 16 15 14 14 14 13 13 13 19 25 27 22 22 22 27 26 25 24 28 35 38
23 21 20 19 21 21 26 27 26 24 24 23 24 23 23 23 22 24 23 23 23 24 22 20 18 16 16 15 14 14 15 17 24 27 27 25 26 23 22 21 21 25 24 26 30
27 22 22 20 19 20 26 28 27 22 25 25 25 25 24 24 24 25 27 26 26 25 29 28 29 23 20 17 17 17 15 18 33 30 25 23 21 20 17 17 17 22 25 24 25
30 27 23 20 21 21 24 22 21 25 26 27 25 25 26 25 25 26 27 26 26 26 28 30 29 26 24 22 20 21 21 17 22 25 24 20 19 20 21 18 13 19 25 27 29
29 31 27 23 23 22 23 21 19 21 22 23 24 22 23 22 23 25 27 26 27 26 26 28 31 29 27 25 24 22 24 22 20 24 29 26 25 24 24 19 18 20 25 27 32
30 34 30 27 25 27 24 23 21 23 24 25 27 26 23 24 22 24 27 26 25 26 27 29 29 31 28 27 29 27 23 21 22 25 29 29 26 27 25 21 19 20 22 24 28
30 36 34 33 33 31 28 27 27 28 26 26 26 28 27 25 24 25 26 26 27 26 28 29 30 30 32 31 28 29 28 24 27 27 26 25 24 25 24 24 20 17 20 24 28
34 36 36 37 38 37 35 33 32 31 30 30 27 27 28 29 29 27 28 29 29 28 29 29 30 31 30 31 30 28 28 28 28 29 31 32 29 30 27 25 22 18 23 27 30
35 37 38 39 39 40 40 39 38 35 34 33 33 31 29 29 31 35 32 34 33 35 36 32 30 34 32 32 40 36 31 31 31 33 32 29 30 29 29 28 26 21 21 26 32
40 42 42 42 44 41 42 42 41 41 38 37 37 36 37 36 37 35 34 38 36 38 39 38 38 37 38 32 32 34 33 33 36 33 33 32 32 32 28 32 28 25 24 28 36
46 44 42 42 42 44 44 43 44 46 44 45 43 42 40 42 43 44 44 41 40 41 38 40 43 44 46 41 37 34 34 34 34 34 34 31 29 29 32 32 30 29 27 29 36
47 47 47 44 44 44 44 46 46 44 44 44 44 45 44 46 45 45 45 45 44 44 46 46 44 48 48 45 44 38 37 34 33 33 36 34 32 32 33 33 33 34 33 33 39